Flag for U.S.A. Weather past 2 weeks in Paradise, Nevada, U.S.A.

Now
54 °F

Mostly cloudy.


Feels Like: 54 °F
Forecast: 41 / 58 °F
Wind: No wind

Location: McCarran International Airport

Current Time: Mar 1, 2015 at 11:29:29 AM

Latest Report: Mar 1, 2015 at 10:56 AM


Visibility: 10 mi

Pressure: 29.94 "Hg

Humidity: 45%

Dew point: 33 °F

Location of ParadiseLocation

Historic Weather in Paradise — Graph

°F

Paradise temperature yesterday

Maximum temperature yesterday: 61 °F (at 12:56 PM)
Minimum temperature yesterday: 52 °F (at 11:56 PM)
Average temperature yesterday: 56 °F

Past Weeks' High & Low Weather Summary

 TemperatureHumidityPressure
High79 °F (Feb 15, 2:56 PM)97% (Feb 23, 3:56 AM)30.18 "Hg (Feb 23, 3:56 AM)
Low38 °F (Feb 23, 3:56 AM)10% (Feb 16, 3:56 PM)29.47 "Hg (Feb 27, 11:56 PM)
Average58 °F30%29.90 "Hg
* Reported Feb 14 9:56 AM — Mar 1 9:56 AM, Paradise, Weather by CustomWeather, © 2015

Note: Actual official high and low records may vary slightly from our data, if they occured in-between our weather recording intervals... More about our weather records

Advertising

Paradise weather history for previous 24 hours

 ConditionsComfort  
Time TempWeatherWind HumidityBarometerVisibility
9:56 AM
Sun, Mar 1
53 °FMostly cloudy.3 mph47%29.94 "Hg10 mi
8:56 AM50 °FMostly cloudy.5 mph54%29.94 "Hg10 mi
7:56 AM48 °FBroken clouds.7 mph61%29.93 "Hg10 mi
6:56 AM47 °FScattered clouds.8 mph61%29.91 "Hg10 mi
5:56 AM48 °FPassing clouds.6 mph56%29.89 "Hg10 mi
4:56 AM49 °FOvercast.6 mph55%29.87 "Hg10 mi
3:56 AM50 °FPartly cloudy.5 mph52%29.85 "Hg10 mi
2:56 AM51 °FPartly cloudy.No wind52%29.84 "Hg10 mi
1:56 AM51 °FPassing clouds.3 mph54%29.83 "Hg10 mi
12:56 AM51 °FPassing clouds.No wind52%29.83 "Hg10 mi
11:56 PM
Sat, Feb 28
52 °FPassing clouds.No wind41%29.81 "Hg10 mi
10:56 PM54 °FPassing clouds.9 mph37%29.80 "Hg10 mi
9:56 PM54 °FPassing clouds.14 mph35%29.78 "Hg10 mi
8:56 PM56 °FPassing clouds.9 mph32%29.76 "Hg10 mi
7:56 PM57 °FPassing clouds.10 mph28%29.74 "Hg10 mi
6:56 PM58 °FPassing clouds.15 mph26%29.71 "Hg10 mi
5:56 PM59 °FPassing clouds.15 mph24%29.68 "Hg10 mi
4:56 PM60 °FPassing clouds.18 mph25%29.65 "Hg10 mi
3:56 PM61 °FPassing clouds.21 mph24%29.63 "Hg10 mi
2:56 PM61 °FPassing clouds.17 mph24%29.63 "Hg10 mi
1:56 PM61 °FPassing clouds.23 mph24%29.62 "Hg10 mi
12:56 PM61 °FPassing clouds.21 mph26%29.62 "Hg10 mi
11:56 AM59 °FPassing clouds.17 mph28%29.63 "Hg10 mi
Weather by CustomWeather, © 2015

See weather overviewHow to use our weather pages